Location: Brienzwiler
(46.7508°N, 8.1014°E)
Time: 17:07:40
(UTC+00:00)

Elektron 1 - Pass Details

Date: 05 July 2020
Orbit: 405 x 6310 km, 60.8° (Epoch: 11 August)

Event Time Altitude Azimuth Distance (km) Brightness Sun altitude
Exits shadow 22:21:05 33° 224° (SW) 842 5.0 -18.7°
Maximum altitude 22:22:30 89° 311° (NW) 557 4.2 -18.8°
Drops below altitude 10° 22:27:47 10° 44° (NE) 2,628 8.1 -19.1°
Sets 22:31:28 0° 45° (NE) 4,260 9.3 -19.2°
